Location: Cactus School
(34.5700°N, 118.0931°W)
Time: 19:01:14
(UTC-08:00)

Tiros 1 - Pass Details

Date: 01 December 2019
Orbit: 630 x 664 km, 48.4° (Epoch: 04 December)

Event Time Altitude Azimuth Distance (km) Brightness Sun altitude
Rises 17:16:21 0° 287° (WNW) 2,916 11.4 -7.3°
Reaches altitude 10° 17:19:46 10° 261° (W) 2,008 11.3 -8.0°
Maximum altitude 17:21:59 13° 232° (SW) 1,792 10.7 -8.4°
Drops below altitude 10° 17:24:12 10° 203° (SSW) 2,009 10.3 -8.8°
Sets 17:27:39 0° 176° (S) 2,920 10.7 -9.5°
